Regional Weather Roundup
Issued by NWS Grand Forks, ND

Home | Current Version | Previous Version | Graphics & Text | Print | Product List | Glossary On
Versions: 1 2 3 4 5 6 7 8 9 10 11 12 13 14 15 16 17 18 19 20 21 22 23 24 25 26 27 28 29 30 31 32 33 34 35 36 37 38 39 40 41 42 43 44 45 46 47 48 49 50
000
ASUS43 KFGF 121810
RWRFGF
PRAIRIE TO PINES  WEATHER ROUNDUP
NATIONAL WEATHER SERVICE EASTERN NORTH DAKOTA/GRAND FORKS ND
1200 PM CST TUE DEC 12 2017

 **SATELLITE DATA USED TO AUGMENT SKY COVER AT AUTOMATED STATIONS**
 *****  WEATHER ACROSS EASTERN NORTH DAKOTA  *****

CITY           SKY/WX    TMP DP  RH WIND       PRES   REMARKS
GRAND FORKS    CLOUDY    28  26  92 S10       29.89F WCI  19
6HR MIN TEMP:  19; 6HR MAX TEMP:  28;

GRAND FRKS AFB CLOUDY    34  28  77 SW7       29.89F
GRAND FRKS NWS   N/A     27 N/A N/A S6          N/A  WCI  20
DEVILS LAKE    FAIR      33  28  81 SW9       29.87F
6HR MIN TEMP:  24; 6HR MAX TEMP:  33;

FARGO          PTSUNNY   32  27  81 S9        29.94F WCI  24
WAHPETON ARPT  MOCLDY    34  28  80 SW10      29.97F
$$

 ***** WEATHER ACROSS CENTRAL AND WESTERN NORTH DAKOTA  *****

CITY           SKY/WX    TMP DP  RH WIND       PRES   REMARKS
BISMARCK       FAIR      42  27  55 W8        29.96F
6HR MIN TEMP:  20; 6HR MAX TEMP:  42;

MINOT          FAIR      43  26  51 SW16      29.86F
6HR MIN TEMP:  30; 6HR MAX TEMP:  43;

JAMESTOWN      FAIR      35  28  75 W10       29.92F
6HR MIN TEMP:  24; 6HR MAX TEMP:  35;

MINOT AFB      FAIR      42  25  51 W18       29.84F
GARRISON         N/A     42  27  55 W17       29.90F
WILLISTON      FAIR      40  26  57 SW13      29.95F
DICKINSON      FAIR      47  25  42 W16       29.94F
6HR MIN TEMP:  25; 6HR MAX TEMP:  47;

HETTINGER      FAIR      49  23  36 W16       30.01F
6HR MIN TEMP:  19; 6HR MAX TEMP:  49;

$$

 *****  OTHER AIRPORT OBSERVATIONS IN OUR AREA  *****

CITY           SKY/WX    TMP DP  RH WIND       PRES   REMARKS
WALHALLA       FAIR      32  32 100 CALM      29.84F
GRAFTON AIRPOR FAIR      28  27  93 S9        29.89F WCI  20
VALLEY CITY AR CLOUDY    32  32 100 W14       29.94F WCI  22
CANDO          FAIR      34  30  86 W14       29.86F WCI  24
CAVALIER APRT  MOCLDY    28  27  93 S8        29.85F WCI  20
GWINNER          N/A     34  28  80 SW18      29.96F WCI  23
SHEYENNE NWR     N/A     34  29  81 W9        29.95S
ROLLA          FAIR      30  27  86 SW14      29.81F WCI  20
 ***** THE ABOVE OBSERVATIONS ARE NON NWS ARE NOT QUALITY
       CONTROLLED AND MAY MIS-REPORT RAIN FOR SNOW...
$$

  *****  WEATHER ACROSS NORTHERN MINNESOTA  *****

CITY           SKY/WX    TMP DP  RH WIND       PRES   REMARKS
FLAG ISLAND    LGT SNOW  10   7  85 S15       29.91F WCI  -6
WARROAD        LGT SNOW  12   9  85 E6        29.92F WCI   3
ROSEAU         LGT SNOW  16  10  79 SE6       29.91F WCI   7
HALLOCK        CLOUDY    23  21  93 S12       29.88F WCI  12
THF RVR FALLS  CLOUDY    22  20  92 S13       29.90F WCI  10
6HR MIN TEMP:  11; 6HR MAX TEMP:  22; 6HR PCP: TRACE;

BAUDETTE       LGT SNOW  11   7  84 SE7       29.93F FOG     WCI   0
6HR MIN TEMP:  -1; 6HR MAX TEMP:  11; 6HR PCP: TRACE;

WASKISH        CLOUDY    12  10  92 SE7       29.95F WCI   2
CROOKSTON      FAIR      25  21  86 S10       29.92F WCI  15
STEPHEN NDAWN    N/A     23  21  93 S12         N/A  WCI  12
GREENBUSH NDAW   N/A     19  18  93 S8          N/A  WCI   9
$$
  *****  WEATHER ACROSS CENTRAL AND WEST MINNESOTA  *****

CITY           SKY/WX    TMP DP  RH WIND       PRES   REMARKS
FOSSTON        CLOUDY    21  18  86 S15       29.90F WCI   8
BEMIDJI        LGT SNOW  14  12  90 SE8       29.93F WCI   3
6HR MIN TEMP:   1; 6HR MAX TEMP:  14;

PARK RAPIDS      N/A     16  13  88 MISG      29.95F
6HR MIN TEMP:   6; 6HR MAX TEMP:  16; 6HR PCP:  0.09;

ELBOW LAKE     MOCLDY    28  25  86 S10       29.98F WCI  19
6HR MIN TEMP:  11; 6HR MAX TEMP:  28;

WADENA         CLOUDY    19  18  93 S6        29.96F WCI  11
DETROIT LAKES  PTSUNNY   25  23  93 SW8       29.94F WCI  16
MOORHEAD       FAIR      28  25  86 CALM      29.95F
FERGUS FALLS   FAIR      28  25  86 S9        30.00F WCI  20
MORRIS MN      FAIR      30  25  80 SW10      30.00F WCI  21
STAPLES        LGT SNOW  16  12  86 S8        29.99F WCI   5
$$
  *****  WEATHER ELSEWHERE ACROSS MINNESOTA  *****

CITY           SKY/WX    TMP DP  RH WIND       PRES   REMARKS
DULUTH         CLOUDY     8   2  76 N8        30.00F WCI  -4
6HR MIN TEMP:  -2; 6HR MAX TEMP:   8;

INTRNTL FALLS  LGT SNOW   7   3  84 SE6       29.97F FOG     WCI  -3
6HR MIN TEMP:  -6; 6HR MAX TEMP:   7; 6HR PCP: TRACE;

ELY            FAIR       3  -2  78 SW5       30.00F WCI  -6
CLOQUET        CLOUDY     9   1  72 W5        30.02F WCI   0
WHEATON        FAIR      37  28  70 SW13      30.00F
BRAINERD       LGT SNOW  13   8  81 S7        30.02F WCI   3
6HR MIN TEMP:  -3; 6HR MAX TEMP:  13; 6HR PCP: TRACE;

HIBBING        CLOUDY     6   2  83 SE6       30.01F WCI  -4
6HR MIN TEMP:  -6; 6HR MAX TEMP:   6;

ALEXANDRIA     CLOUDY    22  18  85 SW13      30.00F WCI  10
6HR MIN TEMP:  12; 6HR MAX TEMP:  22;

SAINT CLOUD    LGT SNOW  16  11  80 S8        30.06F WCI   5
6HR MIN TEMP:   4; 6HR MAX TEMP:  16; 6HR PCP:  0.01;

MINNEAPOLIS    CLOUDY    15   7  70 CALM      30.13F
6HR MIN TEMP:   6; 6HR MAX TEMP:  15;

$$

  *****  WEATHER ACROSS SOUTH DAKOTA  *****

CITY           SKY/WX    TMP DP  RH WIND       PRES   REMARKS
SIOUX FALLS    FAIR      31  25  78 SW8       30.12F WCI  23
6HR MIN TEMP:  14; 6HR MAX TEMP:  31;

BROOKINGS      FAIR      34  27  75 W13       30.07F WCI  25
WATERTOWN      FAIR      34  28  79 SW15      30.02F WCI  24
6HR MIN TEMP:  17; 6HR MAX TEMP:  34;

HURON          FAIR      41  29  62 MISG      30.08F
6HR MIN TEMP:  23; 6HR MAX TEMP:  41;

SISSETON         N/A     38  29  70 W14       29.97F
ABERDEEN       PTSUNNY   38  30  73 SW17      30.02F
6HR MIN TEMP:  17; 6HR MAX TEMP:  38;

MITCHELL       FAIR      40  29  64 SW9       30.12F
PIERRE         FAIR      37  27  67 W13       30.06F
6HR MIN TEMP:  23; 6HR MAX TEMP:  37;

MOBRIDGE       FAIR      39  28  64 SW7       29.99F
RAPID CITY     FAIR      49  17  28 SE5       30.11F
6HR MIN TEMP:  18; 6HR MAX TEMP:  49;

$$

  *****  SOME WEATHER IN NEARBY STATES *****

CITY           SKY/WX    TMP DP  RH WIND       PRES   REMARKS
GLASGOW MT     FAIR      36  23  59 NW5       29.99F
6HR MIN TEMP:  21; 6HR MAX TEMP:  36;

GREAT FALLS MT FAIR      55   0  10 SW30G39   30.16R
6HR MIN TEMP:  41; 6HR MAX TEMP:  56;

CHEYENNE WY    FAIR      59  15  18 NW15      30.31F
6HR MIN TEMP:  27; 6HR MAX TEMP:  59;

SCOTTSBLUFF NE FAIR      50  19  29 NW10      30.23F
6HR MIN TEMP:  21; 6HR MAX TEMP:  50;

OMAHA NE       FAIR      32  17  54 SE5       30.26F
6HR MIN TEMP:  14; 6HR MAX TEMP:  33;

DES MOINES IA  PTSUNNY   26   7  44 W9        30.23F WCI  17
6HR MIN TEMP:  14; 6HR MAX TEMP:  26;

DAVENPORT IA   FAIR      24   8  50 W14       30.18F WCI  12
6HR MIN TEMP:  16; 6HR MAX TEMP:  24;

CHICAGO IL     FAIR      20   7  57 NW12      30.06F WCI   8
6HR MIN TEMP:  17; 6HR MAX TEMP:  20;

EAU CLAIRE WI  CLOUDY    11   2  67 W9        30.11F WCI  -2
6HR MIN TEMP:   2; 6HR MAX TEMP:  11;

LA CROSSE WI   PTSUNNY   19   4  51 NW9       30.16F WCI   8
6HR MIN TEMP:  11; 6HR MAX TEMP:  20;

$$

  *****  SOME NATIONAL WEATHER *****

CITY           SKY/WX    TMP DP  RH WIND       PRES   REMARKS
LA GUARDIA NY  CLOUDY    48  36  63 W13       29.45F
6HR MIN TEMP:  48; 6HR MAX TEMP:  51;

RALEIGH NC     PTSUNNY   50  35  56 W8        29.63F
6HR MIN TEMP:  39; 6HR MAX TEMP:  51;

ATLANTA GA     PTSUNNY   49  33  54 N21G32    29.93F
6HR MIN TEMP:  41; 6HR MAX TEMP:  51;

NEW ORLEANS LA FAIR      60  37  42 N13       30.17F
6HR MIN TEMP:  51; 6HR MAX TEMP:  60;

OKLAHOMA CITY  FAIR      45  25  45 N12       30.41F
6HR MIN TEMP:  33; 6HR MAX TEMP:  46;

ALBUQUERQUE NM FAIR      43   6  21 CALM      30.51F
6HR MIN TEMP:  27; 6HR MAX TEMP:  43;

SALT LAKE CITY FOG       24  22  91 CALM      30.61S VSB 1/4
6HR MIN TEMP:  24; 6HR MAX TEMP:  25; 6HR PCP:  0.01;

LOS ANGELES CA FAIR



USA.gov is the U.S. government's official web portal to all federal, state and local government web resources and services.